User: anonymous   Login
Location: Long Point Provincial Park
(42.5794°N, 80.4103°W)
Time: 18:48:53
(UTC-04:00)
Language:

Iridium 19 - Orbit

View from above orbital plane
View from above orbital plane
View from above satellite
View from above satellite

Ground track
Ground track

The orbit data is extracted from the following two-line orbital elements,

1 24965U 97056A   17267.47270076 -.00000037  00000-0 -20449-4 0  9994
2 24965  86.3916 277.1800 0002174  87.9993 272.1452 14.34218701 46784
Epoch (UTC): 24 September 2017 11:20:41
Eccentricity: 0.0002174
inclination: 86.3916°
perigee height: 776 km
apogee height: 779 km
right ascension of ascending node: 277.1800°
argument of perigee: 87.9993°
revolutions per day: 14.34218701
mean anomaly at epoch: 272.1452°
orbit number at epoch: 4678

The dashed part of the orbit path shows where the satellite is in the earth's shadow,  

DLR